International Virtual Aviation Organisation

Russian Federation and Kazakhstan MCD

 

Карточка аэропорта UNBB

Внимание!
Информация на этой странице в стадии наполнения.
Если вы не увидели какой-то информации, или заметили неточность - пожалуйста сообщите нам!
Спасибо!
Команда RU-STAFF
Название аэропортаМихайловка
Название аэропорта (англ.)Mikhaylovka
Превышение837 ft. (255.1 m.)
Координаты53°21.798', 83°32.382'
Высота перехода700m
Эшелон переходаFL050
Коды ответчика5301-5317
Зона ОрВДНовосибирск РПИ (UNNT)
Данные METARUNBB 250430Z 33001MPS 9999 -SN BKN040 M06/M07 Q1037 R24/490150 NOSIG RMK QFE755
Проноз погоды (TAF)UNBB 250200Z 2503/2603 34003MPS 6000 -SN BKN016 BECMG 2505/2506 02003G08MPS
NOTAMshow/hide NOTAM
AWOS   TABLE

Информация о ВПП

ВПП Длина ВПП (м.) Покрытие Курс ВПП Частота ILS
062853Асфальтобетон59 
242853Асфальтобетон239108.7

Диспетчерские позиции




Спутниковое изображение